When you browse on this site, cookies collect data to enhance your experience and personalize the content and advertising you see.
Visit our Privacy Policy to learn more. By continuing to use the site, you agree to this use of cookies and data.
  • în România
  • Lista ţărilor
  • Pe 7 zile
  • Temperatura apei
  • Meteo pe hartă
  • Widget-uri
  • user-avatar
    Intrare

    Meteo pe oră la Gabú

    Astăzi, 22 August, Joi

    Timp Temperatura Precipitaţii Vânt Presiune Umiditate
    00:00 +25°C° 0.9 mm 1 m/s 751 mmHg 96%
    01:00 +25°C° 0.9 mm 1 m/s 751 mmHg 96%
    02:00 +25°C° 0.9 mm 1 m/s 750 mmHg 96%
    03:00 +25°C° 1.4 mm 2 m/s 750 mmHg 97%
    04:00 +25°C° 1.4 mm 3 m/s 750 mmHg 97%
    05:00 +25°C° 1.4 mm 3 m/s 751 mmHg 97%
    06:00 +25°C° 2.8 mm 3 m/s 751 mmHg 97%
    07:00 +25°C° 2.8 mm 3 m/s 751 mmHg 97%
    08:00 +25°C° 2.8 mm 3 m/s 752 mmHg 97%
    09:00 +25°C° 3.1 mm 3 m/s 752 mmHg 96%
    10:00 +26°C° 3.1 mm 4 m/s 753 mmHg 95%
    11:00 +26°C° 3.1 mm 5 m/s 753 mmHg 95%
    12:00 +26°C° 1.4 mm 4 m/s 753 mmHg 94%
    13:00 +27°C° 1.4 mm 4 m/s 752 mmHg 93%
    14:00 +27°C° 1.4 mm 4 m/s 752 mmHg 93%
    15:00 +27°C° 0.9 mm 4 m/s 752 mmHg 93%
    16:00 +26°C° 0.9 mm 4 m/s 752 mmHg 94%
    17:00 +26°C° 0.9 mm 4 m/s 752 mmHg 95%
    18:00 +25°C° 0.1 mm 4 m/s 752 mmHg 95%
    19:00 +25°C° 0.1 mm 4 m/s 753 mmHg 95%
    20:00 +25°C° 0.1 mm 3 m/s 754 mmHg 95%
    21:00 +25°C° 0 mm 3 m/s 754 mmHg 96%
    22:00 +25°C° 0 mm 3 m/s 754 mmHg 96%
    23:00 +25°C° 0 mm 3 m/s 754 mmHg 96%

    Mâine, 23 August, Vineri

    Timp Temperatura Precipitaţii Vânt Presiune Umiditate
    00:00 +25°C° 0 mm 3 m/s 754 mmHg 96%
    01:00 +24°C° 0 mm 3 m/s 754 mmHg 97%
    02:00 +24°C° 0 mm 3 m/s 753 mmHg 97%
    03:00 +24°C° 0 mm 3 m/s 753 mmHg 97%
    04:00 +24°C° 0 mm 3 m/s 753 mmHg 97%
    05:00 +24°C° 0 mm 3 m/s 753 mmHg 97%
    06:00 +25°C° 0.1 mm 3 m/s 754 mmHg 95%
    07:00 +26°C° 0.1 mm 3 m/s 754 mmHg 93%
    08:00 +26°C° 0.1 mm 4 m/s 755 mmHg 91%
    09:00 +28°C° 0.3 mm 4 m/s 755 mmHg 87%
    10:00 +29°C° 0.3 mm 4 m/s 754 mmHg 83%
    11:00 +30°C° 0.3 mm 4 m/s 754 mmHg 79%
    12:00 +30°C° 1.7 mm 4 m/s 754 mmHg 81%
    13:00 +29°C° 1.7 mm 4 m/s 753 mmHg 83%
    14:00 +29°C° 1.7 mm 4 m/s 753 mmHg 86%
    15:00 +29°C° 1.4 mm 4 m/s 753 mmHg 87%
    16:00 +28°C° 1.4 mm 4 m/s 753 mmHg 89%
    17:00 +28°C° 1.4 mm 3 m/s 753 mmHg 91%
    18:00 +27°C° 0.1 mm 3 m/s 753 mmHg 92%
    19:00 +26°C° 0.1 mm 3 m/s 754 mmHg 94%
    20:00 +25°C° 0.1 mm 2 m/s 755 mmHg 96%
    21:00 +25°C° 0 mm 2 m/s 755 mmHg 96%
    22:00 +25°C° 0 mm 2 m/s 755 mmHg 97%
    23:00 +25°C° 0 mm 2 m/s 755 mmHg 98%

    Poimâine, 24 August, Sâmbătă

    Timp Temperatura Precipitaţii Vânt Presiune Umiditate
    00:00 +24°C° 0 mm 2 m/s 755 mmHg 98%
    01:00 +24°C° 0 mm 2 m/s 754 mmHg 98%
    02:00 +24°C° 0 mm 1 m/s 754 mmHg 98%
    03:00 +24°C° 0 mm 1 m/s 754 mmHg 98%
    04:00 +24°C° 0 mm 2 m/s 754 mmHg 98%
    05:00 +24°C° 0 mm 2 m/s 754 mmHg 98%
    06:00 +25°C° 0 mm 2 m/s 754 mmHg 96%
    07:00 +26°C° 0 mm 2 m/s 754 mmHg 93%
    08:00 +27°C° 0 mm 3 m/s 754 mmHg 90%
    09:00 +28°C° 1.8 mm 2 m/s 754 mmHg 89%
    10:00 +28°C° 1.8 mm 2 m/s 754 mmHg 88%
    11:00 +29°C° 1.8 mm 2 m/s 754 mmHg 86%
    12:00 +29°C° 2.8 mm 2 m/s 754 mmHg 87%
    13:00 +29°C° 2.8 mm 2 m/s 753 mmHg 88%
    14:00 +29°C° 2.8 mm 2 m/s 753 mmHg 89%
    15:00 +28°C° 3.1 mm 2 m/s 753 mmHg 91%
    16:00 +27°C° 3.1 mm 3 m/s 752 mmHg 94%
    17:00 +25°C° 3.1 mm 4 m/s 752 mmHg 96%
    18:00 +25°C° 0.1 mm 3 m/s 753 mmHg 96%
    19:00 +25°C° 0.1 mm 3 m/s 753 mmHg 97%
    20:00 +25°C° 0.1 mm 3 m/s 754 mmHg 97%
    21:00 +25°C° 0.7 mm 3 m/s 754 mmHg 97%
    22:00 +25°C° 0.7 mm 3 m/s 754 mmHg 97%
    23:00 +25°C° 0.7 mm 3 m/s 754 mmHg 97%

    25 August, Duminică

    Timp Temperatura Precipitaţii Vânt Presiune Umiditate
    00:00 +25°C° 3.5 mm 3 m/s 754 mmHg 97%
    01:00 +25°C° 3.5 mm 3 m/s 753 mmHg 97%
    02:00 +25°C° 3.5 mm 3 m/s 752 mmHg 97%
    03:00 +25°C° 1.4 mm 3 m/s 752 mmHg 97%
    04:00 +25°C° 1.4 mm 2 m/s 752 mmHg 97%
    05:00 +24°C° 1.4 mm 2 m/s 752 mmHg 98%
    06:00 +25°C° 1.4 mm 2 m/s 753 mmHg 97%
    07:00 +25°C° 1.4 mm 2 m/s 753 mmHg 96%
    08:00 +25°C° 1.4 mm 2 m/s 753 mmHg 95%
    09:00 +25°C° 1.6 mm 2 m/s 754 mmHg 95%
    10:00 +25°C° 1.6 mm 2 m/s 754 mmHg 96%
    11:00 +25°C° 1.6 mm 2 m/s 754 mmHg 96%
    12:00 +24°C° 1.4 mm 2 m/s 754 mmHg 96%
    13:00 +24°C° 1.4 mm 2 m/s 753 mmHg 96%
    14:00 +24°C° 1.4 mm 2 m/s 753 mmHg 96%
    15:00 +23°C° 0.5 mm 2 m/s 753 mmHg 96%
    16:00 +23°C° 0.5 mm 1 m/s 753 mmHg 96%
    17:00 +23°C° 0.5 mm 1 m/s 753 mmHg 97%
    18:00 +22°C° 1.3 mm 1 m/s 753 mmHg 97%
    19:00 +21°C° 1.3 mm 2 m/s 754 mmHg 97%
    20:00 +21°C° 1.3 mm 2 m/s 754 mmHg 97%
    21:00 +21°C° 0.3 mm 2 m/s 755 mmHg 97%
    22:00 +22°C° 0.3 mm 1 m/s 755 mmHg 97%
    23:00 +22°C° 0.3 mm 1 m/s 755 mmHg 97%

    26 August, Luni

    Timp Temperatura Precipitaţii Vânt Presiune Umiditate
    00:00 +22°C° 0.2 mm 1 m/s 754 mmHg 97%
    01:00 +22°C° 0.2 mm 1 m/s 754 mmHg 97%
    02:00 +22°C° 0.2 mm 1 m/s 753 mmHg 98%
    03:00 +22°C° 0 mm 1 m/s 753 mmHg 98%
    04:00 +22°C° 0 mm 1 m/s 753 mmHg 97%
    05:00 +22°C° 0 mm 1 m/s 753 mmHg 97%
    06:00 +23°C° 0 mm 1 m/s 754 mmHg 96%
    07:00 +24°C° 0 mm 1 m/s 754 mmHg 94%
    08:00 +25°C° 0 mm 1 m/s 754 mmHg 93%
    09:00 +26°C° 0.2 mm 1 m/s 754 mmHg 89%
    10:00 +27°C° 0.2 mm 1 m/s 754 mmHg 85%
    11:00 +28°C° 0.2 mm 1 m/s 754 mmHg 81%
    12:00 +28°C° 1.3 mm 2 m/s 754 mmHg 83%
    13:00 +28°C° 1.3 mm 2 m/s 753 mmHg 85%
    14:00 +28°C° 1.3 mm 3 m/s 753 mmHg 87%
    15:00 +28°C° 0.9 mm 2 m/s 752 mmHg 89%
    16:00 +27°C° 0.9 mm 2 m/s 752 mmHg 90%
    17:00 +27°C° 0.9 mm 2 m/s 752 mmHg 91%
    18:00 +26°C° 0.3 mm 2 m/s 753 mmHg 93%
    19:00 +25°C° 0.3 mm 2 m/s 754 mmHg 95%
    20:00 +24°C° 0.3 mm 2 m/s 754 mmHg 96%
    21:00 +24°C° 0 mm 2 m/s 754 mmHg 97%
    22:00 +24°C° 0 mm 2 m/s 754 mmHg 97%
    23:00 +24°C° 0 mm 2 m/s 754 mmHg 98%

    27 August, Marţi

    Timp Temperatura Precipitaţii Vânt Presiune Umiditate
    00:00 +24°C° 0.1 mm 2 m/s 754 mmHg 98%
    01:00 +23°C° 0.1 mm 1 m/s 754 mmHg 98%
    02:00 +23°C° 0.1 mm 1 m/s 753 mmHg 98%
    03:00 +23°C° 0.2 mm 1 m/s 753 mmHg 98%
    04:00 +23°C° 0.2 mm 1 m/s 753 mmHg 98%
    05:00 +23°C° 0.2 mm 1 m/s 753 mmHg 98%
    06:00 +24°C° 0.1 mm 2 m/s 754 mmHg 96%
    07:00 +24°C° 0.1 mm 2 m/s 754 mmHg 95%
    08:00 +25°C° 0.1 mm 2 m/s 754 mmHg 94%
    09:00 +27°C° 0.2 mm 2 m/s 754 mmHg 87%
    10:00 +28°C° 0.2 mm 3 m/s 754 mmHg 80%
    11:00 +30°C° 0.2 mm 3 m/s 754 mmHg 72%
    12:00 +30°C° 0.2 mm 3 m/s 753 mmHg 72%
    13:00 +30°C° 0.2 mm 3 m/s 753 mmHg 71%
    14:00 +31°C° 0.2 mm 3 m/s 752 mmHg 71%
    15:00 +30°C° 0.7 mm 3 m/s 752 mmHg 77%
    16:00 +29°C° 0.7 mm 3 m/s 752 mmHg 83%
    17:00 +28°C° 0.7 mm 2 m/s 752 mmHg 89%
    18:00 +27°C° 0.1 mm 2 m/s 752 mmHg 91%
    19:00 +26°C° 0.1 mm 2 m/s 753 mmHg 93%
    20:00 +25°C° 0.1 mm 2 m/s 754 mmHg 96%
    21:00 +25°C° 0 mm 2 m/s 754 mmHg 96%
    22:00 +24°C° 0 mm 2 m/s 754 mmHg 97%
    23:00 +24°C° 0 mm 2 m/s 754 mmHg 98%
    Arată mai mult